DW1520 Weather Reports


time (UTC)temp
C
wind
direction
speed
KPH
gust
KPH
rain 1hr
cm
rain 24hr
cm
rain mn
cm
humidity
%
barometer
mb
20260901220006 28 163 0.0 0.0 0.00 0.00 0.00 69 1010.0
20260901215505 28 163 0.0 0.0 0.00 0.00 0.00 66 1009.8
20260901215006 28 163 0.0 0.0 0.00 0.00 0.00 66 1009.8
20260901214506 28 163 0.0 0.0 0.00 0.00 0.00 66 1009.8
20260901214006 28 163 0.0 1.6 0.00 0.00 0.00 67 1009.8
20260901213506 28 163 0.0 0.0 0.00 0.00 0.00 63 1009.6
20260901213007 29 163 0.0 0.0 0.00 0.00 0.00 64 1009.6
20260901212506 29 163 0.0 0.0 0.00 0.00 0.00 63 1009.2
20260901211006 29 163 0.0 1.6 0.00 0.00 0.00 61 1009.6
20260901210506 29 163 0.0 0.0 0.00 0.00 0.00 59 1009.6
20260901205506 30 163 0.0 0.0 0.00 0.00 0.00 58 1009.4
20260901205006 30 163 0.0 1.6 0.00 0.00 0.00 55 1009.6
20260901204007 30 163 0.0 0.0 0.00 0.00 0.00 57 1009.3
20260901203506 30 163 0.0 1.6 0.00 0.00 0.00 57 1009.4
20260901203006 30 163 1.6 3.2 0.00 0.00 0.00 51 1009.4
20260901202006 30 166 0.0 4.8 0.00 0.00 0.00 54 1010.2
20260901201506 30 166 0.0 9.7 0.00 0.00 0.00 51 1010.0
20260901201007 30 166 3.2 9.7 0.00 0.00 0.00 50 1010.3
20260901200506 30 166 1.6 8.0 0.00 0.00 0.00 50 1010.4
20260901200006 30 166 3.2 8.0 0.00 0.00 0.00 50 1010.5
20260901195506 30 166 3.2 8.0 0.00 0.00 0.00 50 1010.5
20260901195007 30 162 1.6 8.0 0.00 0.00 0.00 53 1010.5
20260901194506 30 166 3.2 8.0 0.00 0.00 0.00 53 1010.4
20260901194006 30 115 1.6 3.2 0.00 0.00 0.00 55 1010.4
20260901193506 30 115 0.0 3.2 0.00 0.00 0.00 55 1010.4
20260901193006 30 115 3.2 4.8 0.00 0.00 0.00 52 1010.4
20260901192506 30 64 1.6 3.2 0.00 0.00 0.00 53 1010.3
20260901192006 30 42 0.0 3.2 0.00 0.00 0.00 57 1010.2
20260901191006 30 42 1.6 3.2 0.00 0.00 0.00 55 1010.4
20260901190506 30 42 0.0 0.0 0.00 0.00 0.00 57 1010.4
20260901190005 30 42 0.0 0.0 0.00 0.00 0.00 58 1010.4
20260901185506 30 42 0.0 0.0 0.00 0.00 0.00 58 1010.3
20260901185006 30 42 0.0 0.0 0.00 0.00 0.00 52 1010.4
20260901184506 30 42 0.0 0.0 0.00 0.00 0.00 53 1010.6
20260901184006 30 42 0.0 3.2 0.00 0.00 0.00 49 1010.7
20260901183506 30 42 0.0 1.6 0.00 0.00 0.00 49 1010.8
20260901183006 30 42 0.0 4.8 0.00 0.00 0.00 50 1010.8
20260901182506 30 42 1.6 4.8 0.00 0.00 0.00 50 1010.9
20260901182006 30 42 0.0 3.2 0.00 0.00 0.00 49 1011.0
20260901180506 30 42 0.0 1.6 0.00 0.00 0.00 55 1011.2
20260901175505 30 42 0.0 0.0 0.00 0.00 0.00 54 1011.4
20260901175006 30 42 0.0 0.0 0.00 0.00 0.00 52 1011.2
20260901174506 30 42 0.0 1.6 0.00 0.00 0.00 52 1011.2
20260901174008 30 42 0.0 3.2 0.00 0.00 0.00 46 1011.3
20260901173006 30 42 0.0 3.2 0.00 0.00 0.00 50 1011.3
20260901172506 30 42 0.0 3.2 0.00 0.00 0.00 48 1011.4
20260901171506 30 42 0.0 3.2 0.00 0.00 0.00 50 1011.4
20260901170506 30 43 1.6 4.8 0.00 0.00 0.00 50 1011.5
20260901170006 30 44 1.6 3.2 0.00 0.00 0.00 50 1011.5
20260901165506 30 45 0.0 3.2 0.00 0.00 0.00 53 1011.4
20260901165007 30 45 0.0 1.6 0.00 0.00 0.00 52 1011.4
20260901164006 30 45 0.0 3.2 0.00 0.00 0.00 50 1011.4
20260901163506 29 45 0.0 3.2 0.00 0.00 0.00 50 1011.5
20260901163006 29 51 0.0 3.2 0.00 0.00 0.00 53 1011.5
20260901162506 28 51 1.6 3.2 0.00 0.00 0.00 53 1011.5
20260901161007 28 49 0.0 3.2 0.00 0.00 0.00 56 1011.4
20260901160506 28 49 0.0 1.6 0.00 0.00 0.00 56 1011.4
20260901155506 27 49 0.0 3.2 0.00 0.00 0.00 60 1011.5
20260901155006 27 49 1.6 3.2 0.00 0.00 0.00 64 1011.4
20260901154006 27 63 1.6 3.2 0.00 0.00 0.00 64 1011.5
20260901153506 26 63 0.0 3.2 0.00 0.00 0.00 65 1011.4
20260901152506 26 63 0.0 3.2 0.00 0.00 0.00 72 1011.4
20260901152007 25 63 0.0 1.6 0.00 0.00 0.00 75 1011.3
20260901151506 25 63 1.6 3.2 0.00 0.00 0.00 76 1011.3
20260901151006 25 63 1.6 4.8 0.00 0.00 0.00 78 1011.3
20260901150506 24 84 1.6 4.8 0.00 0.00 0.00 80 1011.4
20260901150006 23 85 0.0 3.2 0.00 0.00 0.00 83 1011.4
20260901145506 23 85 0.0 3.2 0.00 0.00 0.00 87 1011.5
20260901145006 22 85 0.0 3.2 0.00 0.00 0.00 88 1011.5
20260901144506 22 88 0.0 1.6 0.00 0.00 0.00 90 1011.5
20260901143506 21 88 0.0 3.2 0.00 0.00 0.00 91 1011.5
20260901143006 21 80 0.0 3.2 0.00 0.00 0.00 91 1011.6
20260901142505 21 80 1.6 3.2 0.00 0.00 0.00 91 1011.6
20260901142006 20 80 0.0 1.6 0.00 0.00 0.00 92 1011.6
20260901141006 20 80 0.0 0.0 0.00 0.00 0.00 92 1011.6
20260901140506 20 80 0.0 0.0 0.00 0.00 0.00 92 1011.5
20260901140006 20 80 0.0 0.0 0.00 0.00 0.00 92 1011.6
20260901135506 20 80 0.0 0.0 0.00 0.00 0.00 92 1011.6
20260901135006 20 80 0.0 0.0 0.00 0.00 0.00 92 1011.7
20260901134505 20 80 0.0 0.0 0.00 0.00 0.00 92 1011.6
20260901134006 19 80 0.0 0.0 0.00 0.00 0.00 92 1011.6
20260901133506 19 80 0.0 0.0 0.00 0.00 0.00 92 1011.6
20260901132006 19 80 0.0 0.0 0.00 0.00 0.00 92 1011.5
20260901131006 19 80 0.0 0.0 0.00 0.00 0.00 93 1011.5
20260901130506 18 80 0.0 0.0 0.00 0.00 0.00 92 1011.4
20260901130005 18 80 0.0 0.0 0.00 0.00 0.00 92 1011.4
20260901125511 18 80 0.0 1.6 0.00 0.00 0.00 92 1011.4
20260901125006 18 80 0.0 1.6 0.00 0.00 0.00 93 1011.4
20260901124006 18 80 0.0 0.0 0.00 0.00 0.00 92 1011.3
20260901123006 18 80 0.0 0.0 0.00 0.00 0.00 92 1011.2
20260901122506 18 80 0.0 0.0 0.00 0.00 0.00 92 1011.2
20260901122006 17 80 0.0 1.6 0.00 0.00 0.00 92 1011.2
20260901121505 17 117 0.0 0.0 0.00 0.00 0.00 92 1011.2
20260901121006 17 117 0.0 0.0 0.00 0.00 0.00 92 1011.2
20260901120506 17 117 0.0 0.0 0.00 0.00 0.00 92 1011.1
20260901120005 17 117 0.0 0.0 0.00 0.00 0.00 92 1011.0
20260901115006 17 117 0.0 0.0 0.00 0.00 0.00 92 1011.0
20260901114506 17 117 0.0 0.0 0.00 0.00 0.00 92 1010.9
20260901114006 17 117 0.0 0.0 0.00 0.00 0.00 92 1010.8
20260901113506 17 117 0.0 0.0 0.00 0.00 0.00 92 1010.8
20260901113006 17 117 0.0 0.0 0.00 0.00 0.00 92 1010.8
20260901112505 17 117 0.0 0.0 0.00 0.00 0.00 92 1010.8
20260901112006 17 117 0.0 0.0 0.00 0.00 0.00 92 1010.8
20260901111505 17 117 0.0 0.0 0.00 0.00 0.00 91 1010.8
20260901111006 17 117 0.0 0.0 0.00 0.00 0.00 91 1010.7
20260901110505 17 117 0.0 0.0 0.00 0.00 0.00 92 1010.6
20260901110006 17 117 0.0 0.0 0.00 0.00 0.00 92 1010.6
20260901105506 17 117 0.0 0.0 0.00 0.00 0.00 91 1010.5
20260901104506 17 117 0.0 0.0 0.00 0.00 0.00 91 1010.6
20260901104005 18 117 0.0 0.0 0.00 0.00 0.00 91 1010.6
20260901103506 18 117 0.0 0.0 0.00 0.00 0.00 91 1010.7
20260901103006 18 117 0.0 0.0 0.00 0.00 0.00 91 1010.7
20260901102506 18 117 0.0 0.0 0.00 0.00 0.00 91 1010.7
20260901101506 18 117 0.0 0.0 0.00 0.00 0.00 91 1010.6
20260901101006 18 117 0.0 0.0 0.00 0.00 0.00 91 1010.6
20260901100506 18 117 0.0 0.0 0.00 0.00 0.00 90 1010.5
20260901095505 18 117 0.0 0.0 0.00 0.00 0.00 90 1010.3
20260901094506 18 117 0.0 0.0 0.00 0.00 0.00 90 1010.2
20260901094006 18 117 0.0 0.0 0.00 0.00 0.00 90 1010.2
20260901093006 18 117 0.0 0.0 0.00 0.00 0.00 90 1010.1
20260901092505 18 117 0.0 0.0 0.00 0.00 0.00 89 1010.1
20260901092006 18 117 0.0 0.0 0.00 0.00 0.00 89 1010.3
20260901091506 19 117 0.0 0.0 0.00 0.00 0.00 89 1010.3
20260901091006 19 117 0.0 0.0 0.00 0.00 0.00 89 1010.3
20260901090506 19 117 0.0 0.0 0.00 0.00 0.00 89 1010.2
20260901090006 19 117 0.0 0.0 0.00 0.00 0.00 89 1010.2
20260901085006 20 117 0.0 0.0 0.00 0.00 0.00 88 1010.2
20260901084505 20 117 0.0 0.0 0.00 0.00 0.00 88 1010.2
20260901084006 20 117 0.0 0.0 0.00 0.00 0.00 88 1010.1
20260901083505 20 117 0.0 0.0 0.00 0.00 0.00 87 1010.2
20260901083006 20 117 0.0 0.0 0.00 0.00 0.00 87 1010.2
20260901082505 20 117 0.0 0.0 0.00 0.00 0.00 87 1010.1
20260901082006 20 117 0.0 0.0 0.00 0.00 0.00 87 1010.1
20260901081506 20 117 0.0 0.0 0.00 0.00 0.00 88 1010.1
20260901081006 20 117 0.0 0.0 0.00 0.00 0.00 88 1010.1
20260901080006 20 117 0.0 0.0 0.00 0.00 0.00 88 1010.1
20260901075506 20 117 0.0 0.0 0.00 0.00 0.00 87 1010.2
20260901075006 20 117 0.0 0.0 0.00 0.00 0.00 88 1010.3
20260901074505 20 117 0.0 1.6 0.00 0.00 0.00 88 1010.3
20260901074006 20 117 0.0 1.6 0.00 0.00 0.00 88 1010.4
20260901073506 20 117 0.0 0.0 0.00 0.00 0.00 87 1010.4
20260901073006 20 117 0.0 0.0 0.00 0.00 0.00 87 1010.5
20260901072506 20 117 0.0 0.0 0.00 0.00 0.00 87 1010.6
20260901072006 21 117 0.0 0.0 0.00 0.00 0.00 87 1010.5
20260901071506 21 117 0.0 0.0 0.00 0.00 0.00 86 1010.5
20260901071006 21 117 0.0 0.0 0.00 0.00 0.00 86 1010.4
20260901070506 21 117 0.0 0.0 0.00 0.00 0.00 86 1010.4
20260901070006 21 117 0.0 0.0 0.00 0.00 0.00 86 1010.5
20260901065006 21 117 0.0 0.0 0.00 0.00 0.00 86 1010.5
20260901064506 21 117 0.0 0.0 0.00 0.00 0.00 86 1010.5
20260901064007 21 117 0.0 0.0 0.00 0.00 0.00 86 1010.4
20260901063506 21 117 0.0 1.6 0.00 0.00 0.00 86 1010.5
20260901063006 21 117 0.0 0.0 0.00 0.00 0.00 85 1010.5
20260901062505 21 117 0.0 1.6 0.00 0.00 0.00 85 1010.5
20260901061506 22 117 0.0 0.0 0.00 0.00 0.00 84 1010.4
20260901061006 22 117 0.0 0.0 0.00 0.00 0.00 84 1010.3
20260901060006 22 117 0.0 1.6 0.00 0.00 0.00 83 1010.3
20260901055505 22 117 0.0 1.6 0.00 0.00 0.00 83 1010.2
20260901055006 22 117 0.0 1.6 0.00 0.00 0.00 83 1010.2
20260901054505 22 117 0.0 1.6 0.00 0.00 0.00 84 1010.3
20260901054005 22 117 0.0 1.6 0.00 0.00 0.00 83 1010.3
20260901053505 22 117 0.0 1.6 0.00 0.00 0.00 83 1010.1
20260901053006 22 117 0.0 1.6 0.00 0.00 0.00 84 1010.1
20260901052506 21 117 0.0 3.2 0.00 0.00 0.00 84 1010.0
20260901052006 22 117 0.0 1.6 0.00 0.00 0.00 84 1009.9
20260901051505 22 117 0.0 1.6 0.00 0.00 0.00 84 1009.9
20260901051009 22 117 0.0 0.0 0.00 0.00 0.00 83 1009.8
20260901045511 22 117 0.0 0.0 0.00 0.00 0.00 83 1009.7
20260901044507 22 117 0.0 3.2 0.00 0.00 0.00 83 1009.7
20260901044006 22 117 0.0 1.6 0.00 0.00 0.00 83 1009.6
20260901043505 22 117 0.0 0.0 0.00 0.00 0.00 83 1009.6
20260901043005 22 117 0.0 0.0 0.00 0.00 0.00 84 1009.6
20260901042006 22 117 0.0 0.0 0.00 0.00 0.00 84 1009.6
20260901041006 22 117 0.0 0.0 0.00 0.00 0.00 84 1009.5
20260901040506 22 117 0.0 0.0 0.00 0.00 0.00 85 1009.6
20260901035506 22 117 0.0 0.0 0.00 0.00 0.00 85 1009.5
20260901035006 22 117 0.0 0.0 0.00 0.00 0.00 85 1009.5
20260901034505 22 117 0.0 0.0 0.00 0.00 0.00 85 1009.5
20260901034005 23 117 0.0 0.0 0.00 0.00 0.00 85 1009.4
20260901033506 23 117 0.0 0.0 0.00 0.00 0.00 84 1009.4
20260901033006 23 117 0.0 0.0 0.00 0.00 0.00 85 1009.3
20260901032006 23 117 0.0 0.0 0.00 0.00 0.00 84 1009.4
20260901031006 23 117 0.0 0.0 0.00 0.00 0.00 84 1009.4
20260901030506 23 117 0.0 0.0 0.00 0.00 0.00 84 1009.3
20260901025006 24 117 0.0 3.2 0.00 0.00 0.00 84 1009.3
20260901024505 24 117 0.0 1.6 0.00 0.00 0.00 83 1009.3
20260901024006 24 117 0.0 1.6 0.00 0.00 0.00 83 1009.2
20260901023506 24 117 0.0 0.0 0.00 0.00 0.00 83 1009.2
20260901022505 25 117 0.0 3.2 0.00 0.00 0.00 82 1009.1
20260901022006 25 117 0.0 0.0 0.00 0.00 0.00 83 1009.0
20260901021505 25 117 0.0 0.0 0.00 0.00 0.00 83 1009.0
20260901021006 25 117 0.0 0.0 0.00 0.00 0.00 83 1009.1
20260901020506 25 117 0.0 0.0 0.00 0.00 0.00 83 1009.1
20260901020005 25 117 0.0 0.0 0.00 0.00 0.00 83 1009.0
20260901015506 25 117 0.0 0.0 0.00 0.00 0.00 83 1009.0
20260901015006 25 117 0.0 0.0 0.00 0.00 0.00 84 1008.9
20260901014006 26 117 0.0 0.0 0.00 0.00 0.00 85 1008.7
20260901013006 26 117 0.0 1.6 0.00 0.00 0.00 85 1008.6
20260901012506 26 117 0.0 0.0 0.00 0.00 0.00 85 1008.6
20260901012006 26 117 0.0 0.0 0.00 0.00 0.00 85 1008.6
20260901011505 26 117 0.0 0.0 0.00 0.00 0.00 85 1008.6
20260901011005 26 117 0.0 0.0 0.00 0.00 0.00 85 1008.5
20260901010506 27 117 0.0 1.6 0.00 0.00 0.00 84 1008.5
20260901005505 27 117 0.0 1.6 0.00 0.00 0.00 83 1008.3
20260901005006 27 173 0.0 1.6 0.00 0.00 0.00 83 1008.3
20260901004506 27 173 0.0 1.6 0.00 0.00 0.00 83 1008.3
20260901004006 27 173 0.0 1.6 0.00 0.00 0.00 83 1008.3
20260901003505 27 173 0.0 1.6 0.00 0.00 0.00 83 1008.3
20260901002505 28 173 0.0 1.6 0.00 0.00 0.00 82 1008.3
20260901002006 28 173 1.6 1.6 0.00 0.00 0.00 82 1008.2
20260901001506 28 173 0.0 4.8 0.00 0.00 0.00 81 1008.2
20260901001006 28 173 1.6 4.8 0.00 0.00 0.00 81 1008.1
20260901000505 28 173 1.6 3.2 0.00 0.00 0.00 80 1008.1
20260901000005 28 173 0.0 1.6 0.00 0.00 0.00 80 1008.1
20260831235506 28 173 0.0 3.2 0.00 0.00 0.00 80 1008.0
20260831234505 28 173 0.0 3.2 0.00 0.00 0.00 79 1008.0
20260831234006 28 173 0.0 3.2 0.00 0.00 0.00 78 1007.9
20260831233505 28 173 0.0 1.6 0.00 0.00 0.00 78 1008.0
20260831233006 28 173 0.0 3.2 0.00 0.00 0.00 78 1008.0
20260831232005 28 173 0.0 1.6 0.00 0.00 0.00 77 1008.0
20260831231006 28 173 0.0 3.2 0.00 0.00 0.00 76 1007.9
20260831230505 28 173 0.0 3.2 0.00 0.00 0.00 75 1007.9
20260831230006 28 173 0.0 3.2 0.00 0.00 0.00 76 1008.0
20260831225505 28 173 1.6 3.2 0.00 0.00 0.00 75 1007.9
20260831225006 28 173 0.0 3.2 0.00 0.00 0.00 75 1007.9
20260831224006 29 173 0.0 1.6 0.00 0.00 0.00 76 1007.9
20260831223005 29 173 0.0 1.6 0.00 0.00 0.00 75 1007.7
20260831222505 29 173 0.0 3.2 0.00 0.00 0.00 75 1007.8
20260831222006 29 173 0.0 3.2 0.00 0.00 0.00 76 1007.8
20260831221505 29 173 1.6 3.2 0.00 0.00 0.00 76 1007.8
20260831221006 29 173 0.0 3.2 0.00 0.00 0.00 76 1007.8